Regional Weather Roundup
Issued by NWS

Home | Current Version | Previous Version | Text Only | Print | Product List | Glossary On
Versions: 1 2 3 4 5 6 7 8 9 10 11 12 13 14 15 16 17 18 19 20 21 22 23 24 25 26 27 28 29 30 31 32 33 34 35 36 37 38 39 40 41 42 43 44 45 46 47 48 49 50
000
ASUS42 KFFC 190503
RWRGA
WEATHER ROUNDUP FOR GEORGIA
NATIONAL WEATHER SERVICE PEACHTREE CITY GA
100 AM EDT THU OCT 19 2017

NOTE: "FAIR" INDICATES FEW OR NO CLOUDS BELOW 12,000 FEET WITH NO
SIGNIFICANT WEATHER AND/OR OBSTRUCTIONS TO VISIBILITY.

* = USE WITH CAUTION. THE STATIONS MARKED WITH AN ASTERISK MAY NOT
REPORT WEATHER SUCH AS PRECIPITATION, FOG, OR THUNDER AND ARE NOT
QUALITY CONTROLLED BY NWS.

THE REMARK "TC" DENOTES TEMPERATURE READING IN DEGREES CELSIUS.

GAZ001>058-190600-
NORTH GEORGIA

CITY           SKY/WX    TMP DP  RH WIND       PRES   REMARKS
ATLANTA        CLEAR     52  44  74 E6        30.28F
ATHENS         CLEAR     47  44  90 E3        30.30F
CHAMBLEE       CLEAR     51  44  77 E3        30.29F
PEACHTREE CITY CLEAR     45  43  93 CALM      30.29F
ROME           CLEAR     47  46  97 CALM      30.29S
WEST ATLANTA   CLEAR     47  46  97 CALM      30.29F
GAINESVILLE    CLEAR     49  45  86 NE5       30.33S
CARTERSVILLE   CLEAR     48  47  96 CALM      30.30F


CITY           SKY/WX    TMP DP  RH WIND       PRES   REMARKS
DALTON*        CLEAR     46  46 100 CALM      30.30F
LAWRENCEVILLE* CLEAR     47  44  90 CALM        N/A
MARIETTA       CLEAR     50  45  83 CALM      30.29F
KENNESAW*      CLEAR     52  46  80 E3        30.30F
CANTON*        CLEAR     50  46  87 CALM      30.31F
$$

GAZ059>098-102>109-190600-
CENTRAL GEORGIA

CITY           SKY/WX    TMP DP  RH WIND       PRES   REMARKS
AUGUSTA-BUSH   CLEAR     48  44  86 CALM      30.28F
AUGUSTA-DANIEL CLEAR     60  39  45 E6        30.28F
COLUMBUS       CLEAR     58  44  60 E6        30.25F
MACON          CLEAR     47  46  97 W3        30.27F
ROBINS AFB     CLEAR     49  47  90 CALM      30.26F


CITY           SKY/WX    TMP DP  RH WIND       PRES   REMARKS
LAGRANGE*      CLEAR     47  46  99 CALM      30.27F
SYLVANIA*      CLEAR     57  51  80 NE5       30.27F
MILLEDGEVILLE* CLEAR     57  46  67 SE3       30.27F
$$

GAZ099>101-110>166-190600-
SOUTH GEORGIA

CITY           SKY/WX    TMP DP  RH WIND       PRES   REMARKS
SAVANNAH       CLEAR     58  56  93 N7        30.25F
VALDOSTA       CLEAR     62  60  93 NE3       30.21F
ALMA           CLEAR     62  56  80 VRB3      30.23F
ST SIMONS      MOCLDY    71  66  84 NE13      30.19F
FT STEWART     CLEAR     60  55  86 N5        30.22F
ALBANY         CLEAR     60  45  57 CALM      30.25F
HUNTER AFB     CLEAR     62  57  82 N6        30.21F
MOODY AFB      CLEAR     61  58  91 NE6       30.21F
BRUNSWICK      CLEAR     66  61  82 N5        30.21F


CITY           SKY/WX    TMP DP  RH WIND       PRES   REMARKS
BAINBRIDGE*    CLEAR     63  55  77 NE6       30.22F
MOULTRIE*      CLEAR     63  54  72 CALM      30.23F
VIDALIA*       CLEAR     59  54  82 NE5       30.25F
WAYCROSS*      CLEAR     63  60  90 NE5       30.23S
DOUGLAS*       CLEAR     61  54  77 NE6       30.25S
$$



USA.gov is the U.S. government's official web portal to all federal, state and local government web resources and services.